Home   Weather   Kingston   Past weeks

Flag for Norfolk Island Past Weather in Kingston, Norfolk Island — Yesterday and Last 2 Weeks

63 °F

Partly cloudy.

Feels Like: 63 °F
Forecast: 62 / 68 °F
Wind: 3 mph from East

Location: Norfolk Island Airport

Current Time: Oct 28, 2016 at 7:27:55 PM

Latest Report: Oct 28, 2016 at 7:00 PM

Visibility: N/A

Pressure: 30.09 "Hg

Humidity: 77%

Dew Point: 55 °F

Location of KingstonLocation

Past Weather in Kingston — Graph


Kingston Temperature Yesterday

Maximum temperature yesterday: 68 °F (at 9:30 AM)
Minimum temperature yesterday: 59 °F (at 1:00 AM)
Average temperature yesterday: 64 °F

High & Low Weather Summary for the Past Weeks

High72 °F (Oct 20, 2:30 PM)100% (Oct 20, 8:00 PM)30.24 "Hg (Oct 20, 8:00 PM)
Low54 °F (Oct 23, 12:30 AM)40% (Oct 22, 10:30 AM)29.86 "Hg (Oct 24, 2:30 PM)
Average64 °F67%30.09 "Hg
* Reported Oct 13 6:00 PM — Oct 28 6:00 PM, Kingston, Weather by CustomWeather, © 2016

Note: Actual official high and low records may vary slightly from our data, if they occured in-between our weather recording intervals... More about our weather records


Kingston Weather History for the Previous 24 Hours

Scroll right to see more
Time TempWeatherWind HumidityBarometerVisibility
6:00 PM
Fri, Oct 28
64 °FScattered clouds.1 mph73%30.07 "HgN/A
5:00 PM66 °FPartly sunny.6 mph68%30.04 "HgN/A
4:30 PM68 °FScattered clouds.6 mph60%30.04 "HgN/A
4:00 PM66 °FPassing clouds.8 mph64%30.04 "HgN/A
3:30 PM68 °FScattered clouds.8 mph64%30.04 "HgN/A
3:00 PM66 °FMostly cloudy.7 mph68%30.04 "HgN/A
2:30 PM68 °FBroken clouds.7 mph64%30.04 "HgN/A
2:00 PM64 °FSprinkles. Mostly cloudy.5 mph78%30.07 "HgN/A
1:30 PM66 °FDrizzle. More clouds than sun.7 mph73%30.07 "HgN/A
1:00 PM68 °FCloudy.9 mph69%30.07 "HgN/A
12:30 PM66 °FDrizzle. Broken clouds.5 mph73%30.07 "HgN/A
12:00 PM64 °FRain showers. Partly sunny.6 mph78%30.09 "Hg4 mi
11:53 AM63 °FRain showers. Mostly cloudy.6 mph83%30.09 "Hg4 mi
11:30 AM64 °FSprinkles. Overcast.5 mph83%30.09 "HgN/A
11:00 AM66 °FSprinkles. Overcast.3 mph68%30.09 "HgN/A
10:30 AM66 °FMostly cloudy.6 mph73%30.09 "HgN/A
10:00 AM66 °FPartly sunny.5 mph73%30.09 "HgN/A
9:30 AM68 °FBroken clouds.10 mph64%30.09 "HgN/A
9:00 AM68 °FPartly sunny.13 mph69%30.09 "HgN/A
8:30 AM68 °FBroken clouds.9 mph64%30.09 "HgN/A
8:00 AM66 °FBroken clouds.9 mph68%30.09 "HgN/A
7:30 AM66 °FScattered clouds.9 mph73%30.09 "HgN/A
7:00 AM66 °FScattered clouds.9 mph73%30.09 "HgN/A
6:30 AM66 °FSunny.8 mph73%30.07 "HgN/A
6:00 AM63 °FSunny.6 mph83%30.07 "HgN/A
5:00 AM59 °FScattered clouds.6 mph88%30.07 "HgN/A
4:00 AM61 °FPassing clouds.7 mph88%30.04 "HgN/A
3:00 AM61 °FPartly cloudy.8 mph88%30.07 "HgN/A
2:00 AM61 °FPassing clouds.5 mph77%30.07 "HgN/A
1:00 AM61 °FPartly cloudy.6 mph83%30.09 "HgN/A
12:00 AM61 °FPartly cloudy.6 mph83%30.12 "HgN/A
11:30 PM
Thu, Oct 27
63 °FPassing clouds.6 mph77%30.12 "HgN/A
11:00 PM61 °FClear.5 mph83%30.12 "HgN/A
10:30 PM61 °FPassing clouds.6 mph83%30.12 "HgN/A
10:00 PM61 °FPassing clouds.5 mph83%30.12 "HgN/A
9:00 PM61 °FPassing clouds.5 mph83%30.12 "HgN/A
8:30 PM61 °FClear.5 mph77%30.12 "HgN/A
8:00 PM63 °FPassing clouds.5 mph77%30.12 "HgN/A
7:30 PM63 °FPassing clouds.6 mph77%30.12 "HgN/A
7:00 PM63 °FPassing clouds.5 mph77%30.09 "HgN/A
Weather by CustomWeather, © 2016

See weather overviewHow to use our weather pages